This is the latest recevied weather packets stored in our database for station/object KP4FJC. If no packets are shown the sender has not sent any weather packets the latest 10 day(s).
| Time | Temp. | Humidity | Pressure | Rain* | Wind** | Luminosity | Snow |
|---|---|---|---|---|---|---|---|
| 1777931314 | 30.56° C | 65% | 1015.5 hPa | 0 mm | - | 91 W/m² | - |
| 1777931011 | 30.56° C | 65% | 1015.6 hPa | 0 mm | - | 105 W/m² | - |
| 1777930708 | 30.56° C | 65% | 1015.6 hPa | 0 mm | - | 110 W/m² | - |
| 1777930404 | 31.11° C | 64% | 1015.5 hPa | 0 mm | - | 119 W/m² | - |
| 1777930102 | 30.56° C | 65% | 1015.4 hPa | 0 mm | - | 132 W/m² | - |
| 1777929797 | 30.56° C | 64% | 1015.3 hPa | 0 mm | - | 149 W/m² | - |
| 1777929495 | 30.56° C | 65% | 1015.5 hPa | 0 mm | - | 163 W/m² | - |
| 1777929191 | 30.56° C | 64% | 1015.4 hPa | 0 mm | - | 182 W/m² | - |
| 1777928889 | 31.11° C | 64% | 1015.6 hPa | 0 mm | - | 202 W/m² | - |
| 1777928586 | 31.11° C | 62% | 1015.7 hPa | 0 mm | - | 220 W/m² | - |
| 1777928283 | 31.11° C | 62% | 1015.4 hPa | 0 mm | - | 238 W/m² | - |
| 1777927981 | 31.67° C | 61% | 1015.2 hPa | 0 mm | - | 260 W/m² | - |
| 1777927679 | 31.11° C | 63% | 1015.2 hPa | 0 mm | - | 294 W/m² | - |
| 1777927377 | 31.67° C | 63% | 1015.1 hPa | 0 mm | - | 310 W/m² | - |
| 1777927076 | 31.67° C | 63% | 1015.1 hPa | 0 mm | - | 330 W/m² | - |
| 1777926772 | 31.67° C | 63% | 1014.8 hPa | 0 mm | - | 350 W/m² | - |
| 1777926467 | 31.11° C | 65% | 1015 hPa | 0 mm | - | 371 W/m² | - |
| 1777926165 | 31.67° C | 65% | 1014.9 hPa | 0 mm | - | 396 W/m² | - |
| 1777925861 | 31.67° C | 65% | 1014.9 hPa | 0 mm | - | 339 W/m² | - |
| 1777925559 | 31.11° C | 65% | 1015.1 hPa | 0 mm | - | 434 W/m² | - |
| 1777925257 | 31.67° C | 65% | 1015 hPa | 0 mm | - | 457 W/m² | - |
| 1777924952 | 32.22° C | 63% | 1015.1 hPa | 0 mm | - | 477 W/m² | - |
| 1777924649 | 31.67° C | 64% | 1015.2 hPa | 0 mm | - | 498 W/m² | - |
| 1777924345 | 31.67° C | 64% | 1015.4 hPa | 0 mm | - | 518 W/m² | - |
| 1777924042 | 31.67° C | 64% | 1015.1 hPa | 0 mm | - | 537 W/m² | - |
* Rain latest hour (hover to see other rain measurements)
** Current wind speed in m/s (hover to see current wind gust speed)